Location: Asheville, NC
(35.6000°N, 82.5500°W)
Time: 16:18:45

UWE-3 - Pass Details

Date: 11 January 2018
Orbit: 585 x 685 km, 97.6° (Epoch: 20 March)

Event Time Altitude Azimuth Distance (km) Brightness Sun altitude
Rises 20:35:28 0° 211° (SSW) 2,835 ? -35.8°
Reaches altitude 10° 20:38:37 10° 237° (WSW) 1,958 ? -36.4°
Maximum altitude 20:40:48 14° 268° (W) 1,740 ? -36.8°
Drops below altitude 10° 20:43:01 10° 299° (WNW) 1,996 ? -37.3°
Sets 20:46:18 0° 326° (NW) 2,933 ? -38.0°
